STARLINK-35699

Last updated on Wed Dec 31 2025 00:02:06 GMT+0000 (Coordinated Universal Time)

1 66557U 25268A 25364.58335648 .00060392 00000+0 21893-2 0 9998 2 66557 43.0014 17.7674 0001824 289.3530 153.4975 15.27533403 6025
UTC large
Height (km)
Speed (km/s)
/
Latitude / Longitude
Inclination (degrees)
Orbital Period (minutes)
Azimuth
Elevation
Range (km)
Doppler Factor

Next 0 passes for location: London (51.5072 / 0.1276)

Sorry there are no passes over London.